When you browse on this site, cookies collect data to enhance your experience and personalize the content and advertising you see.
Visit our Privacy Policy to learn more. By continuing to use the site, you agree to this use of cookies and data.
  • In Schweiz
  • Länderverzeichnis
  • Für 7 Tage
  • Wassertemperatur
  • Wetterkarte
  • Widgets
  • user-avatar
    Anmelden

    Stündliche Wetter Saidpur

    Heute, 18 Oktober, Freitag

    Zeit Temperatur Niederschläge Wind Luftdruck Luftfeuchtigkeit
    00:00 +25°C° 0 mm 0 m/S 757 mmHg 79%
    01:00 +24°C° 0 mm 0 m/S 756 mmHg 80%
    02:00 +24°C° 0 mm 0 m/S 756 mmHg 81%
    03:00 +24°C° 0 mm 0 m/S 756 mmHg 82%
    04:00 +24°C° 0 mm 0 m/S 756 mmHg 83%
    05:00 +25°C° 0 mm 1 m/S 756 mmHg 83%
    06:00 +25°C° 0 mm 2 m/S 757 mmHg 87%
    07:00 +27°C° 0 mm 2 m/S 757 mmHg 83%
    08:00 +28°C° 0 mm 2 m/S 758 mmHg 78%
    09:00 +29°C° 0 mm 2 m/S 758 mmHg 74%
    10:00 +30°C° 0.1 mm 2 m/S 758 mmHg 69%
    11:00 +31°C° 0.1 mm 2 m/S 757 mmHg 65%
    12:00 +32°C° 0 mm 2 m/S 758 mmHg 60%
    13:00 +32°C° 0 mm 2 m/S 757 mmHg 59%
    14:00 +33°C° 0 mm 1 m/S 756 mmHg 57%
    15:00 +33°C° 0 mm 1 m/S 755 mmHg 56%
    16:00 +31°C° 0 mm 1 m/S 755 mmHg 59%
    17:00 +30°C° 0 mm 1 m/S 755 mmHg 63%
    18:00 +29°C° 0 mm 1 m/S 755 mmHg 66%
    19:00 +28°C° 0 mm 1 m/S 756 mmHg 67%
    20:00 +28°C° 0 mm 1 m/S 756 mmHg 67%
    21:00 +27°C° 0 mm 1 m/S 757 mmHg 68%
    22:00 +27°C° 0 mm 1 m/S 757 mmHg 68%
    23:00 +26°C° 0 mm 1 m/S 757 mmHg 68%

    Morgen, 19 Oktober, Samstag

    Zeit Temperatur Niederschläge Wind Luftdruck Luftfeuchtigkeit
    00:00 +26°C° 0 mm 1 m/S 757 mmHg 68%
    01:00 +26°C° 0 mm 1 m/S 757 mmHg 69%
    02:00 +25°C° 0 mm 1 m/S 756 mmHg 70%
    03:00 +25°C° 0 mm 1 m/S 756 mmHg 70%
    04:00 +25°C° 0 mm 1 m/S 757 mmHg 71%
    05:00 +25°C° 0 mm 1 m/S 757 mmHg 73%
    06:00 +25°C° 0 mm 1 m/S 757 mmHg 74%
    07:00 +26°C° 0 mm 1 m/S 758 mmHg 72%
    08:00 +27°C° 0 mm 2 m/S 758 mmHg 70%
    09:00 +29°C° 0 mm 2 m/S 759 mmHg 68%
    10:00 +30°C° 0 mm 1 m/S 758 mmHg 63%
    11:00 +31°C° 0 mm 1 m/S 758 mmHg 58%
    12:00 +33°C° 0 mm 1 m/S 758 mmHg 53%
    13:00 +33°C° 0 mm 1 m/S 757 mmHg 53%
    14:00 +33°C° 0 mm 1 m/S 756 mmHg 52%
    15:00 +34°C° 0 mm 2 m/S 756 mmHg 52%
    16:00 +31°C° 0 mm 2 m/S 755 mmHg 56%
    17:00 +30°C° 0 mm 1 m/S 755 mmHg 61%
    18:00 +28°C° 0 mm 1 m/S 755 mmHg 65%
    19:00 +28°C° 0 mm 1 m/S 756 mmHg 67%
    20:00 +27°C° 0 mm 1 m/S 756 mmHg 68%
    21:00 +25°C° 0 mm 0 m/S 757 mmHg 70%
    22:00 +27°C° 0 mm 1 m/S 757 mmHg 70%
    23:00 +27°C° 0 mm 1 m/S 757 mmHg 69%

    übermorgen, 20 Oktober, Sonntag

    Zeit Temperatur Niederschläge Wind Luftdruck Luftfeuchtigkeit
    00:00 +27°C° 0 mm 1 m/S 757 mmHg 69%
    01:00 +26°C° 0 mm 1 m/S 757 mmHg 70%
    02:00 +26°C° 0 mm 1 m/S 756 mmHg 71%
    03:00 +26°C° 0 mm 1 m/S 756 mmHg 71%
    04:00 +25°C° 0 mm 1 m/S 756 mmHg 73%
    05:00 +25°C° 0 mm 1 m/S 756 mmHg 74%
    06:00 +23°C° 0 mm 0 m/S 757 mmHg 75%
    07:00 +26°C° 0 mm 1 m/S 757 mmHg 72%
    08:00 +28°C° 0 mm 1 m/S 758 mmHg 69%
    09:00 +29°C° 0 mm 1 m/S 758 mmHg 65%
    10:00 +30°C° 0 mm 1 m/S 758 mmHg 62%
    11:00 +31°C° 0 mm 2 m/S 757 mmHg 59%
    12:00 +32°C° 0 mm 2 m/S 757 mmHg 56%
    13:00 +32°C° 0 mm 2 m/S 756 mmHg 56%
    14:00 +34°C° 0 mm 2 m/S 755 mmHg 56%
    15:00 +34°C° 0 mm 2 m/S 755 mmHg 56%
    16:00 +31°C° 0 mm 2 m/S 755 mmHg 60%
    17:00 +30°C° 0 mm 2 m/S 755 mmHg 65%
    18:00 +29°C° 0 mm 2 m/S 755 mmHg 69%
    19:00 +28°C° 0 mm 2 m/S 755 mmHg 71%
    20:00 +28°C° 0 mm 2 m/S 756 mmHg 72%
    21:00 +28°C° 0 mm 1 m/S 756 mmHg 73%
    22:00 +28°C° 0 mm 1 m/S 756 mmHg 73%
    23:00 +28°C° 0 mm 1 m/S 756 mmHg 72%

    21 Oktober, Montag

    Zeit Temperatur Niederschläge Wind Luftdruck Luftfeuchtigkeit
    00:00 +28°C° 0 mm 1 m/S 755 mmHg 72%
    01:00 +27°C° 0 mm 1 m/S 755 mmHg 74%
    02:00 +27°C° 0 mm 1 m/S 755 mmHg 75%
    03:00 +27°C° 0 mm 1 m/S 755 mmHg 77%
    04:00 +26°C° 0 mm 1 m/S 755 mmHg 78%
    05:00 +26°C° 0 mm 2 m/S 755 mmHg 79%
    06:00 +26°C° 0 mm 2 m/S 755 mmHg 80%
    07:00 +27°C° 0 mm 2 m/S 756 mmHg 79%
    08:00 +27°C° 0 mm 3 m/S 756 mmHg 77%
    09:00 +28°C° 0 mm 3 m/S 757 mmHg 75%
    10:00 +28°C° 0 mm 3 m/S 757 mmHg 77%
    11:00 +27°C° 0 mm 3 m/S 756 mmHg 79%
    12:00 +27°C° 0 mm 3 m/S 756 mmHg 80%
    13:00 +27°C° 0 mm 3 m/S 755 mmHg 79%
    14:00 +27°C° 0 mm 3 m/S 755 mmHg 78%
    15:00 +27°C° 0 mm 3 m/S 754 mmHg 77%
    16:00 +27°C° 0 mm 2 m/S 754 mmHg 79%
    17:00 +26°C° 0 mm 2 m/S 754 mmHg 80%
    18:00 +25°C° 0 mm 2 m/S 754 mmHg 82%
    19:00 +25°C° 0 mm 2 m/S 754 mmHg 83%
    20:00 +25°C° 0 mm 2 m/S 754 mmHg 83%
    21:00 +24°C° 0 mm 2 m/S 755 mmHg 84%
    22:00 +24°C° 0 mm 2 m/S 755 mmHg 85%
    23:00 +24°C° 0 mm 2 m/S 755 mmHg 85%

    22 Oktober, Dienstag

    Zeit Temperatur Niederschläge Wind Luftdruck Luftfeuchtigkeit
    00:00 +24°C° 0 mm 2 m/S 755 mmHg 86%
    01:00 +24°C° 0 mm 2 m/S 754 mmHg 87%
    02:00 +23°C° 0 mm 2 m/S 754 mmHg 88%
    03:00 +23°C° 0 mm 2 m/S 754 mmHg 89%
    04:00 +23°C° 0 mm 2 m/S 754 mmHg 90%
    05:00 +23°C° 0 mm 1 m/S 754 mmHg 91%
    06:00 +22°C° 0 mm 1 m/S 754 mmHg 92%
    07:00 +24°C° 0 mm 2 m/S 755 mmHg 86%
    08:00 +26°C° 0 mm 2 m/S 756 mmHg 81%
    09:00 +27°C° 0 mm 2 m/S 756 mmHg 76%
    10:00 +28°C° 0 mm 2 m/S 756 mmHg 72%
    11:00 +29°C° 0 mm 2 m/S 755 mmHg 67%
    12:00 +30°C° 0 mm 2 m/S 755 mmHg 63%
    13:00 +30°C° 0 mm 2 m/S 754 mmHg 61%
    14:00 +31°C° 0 mm 3 m/S 753 mmHg 60%
    15:00 +31°C° 0 mm 3 m/S 752 mmHg 58%
    16:00 +30°C° 0 mm 2 m/S 752 mmHg 62%
    17:00 +28°C° 0 mm 2 m/S 752 mmHg 66%
    18:00 +27°C° 0 mm 2 m/S 752 mmHg 70%
    19:00 +26°C° 0 mm 2 m/S 753 mmHg 71%
    20:00 +26°C° 0 mm 1 m/S 753 mmHg 72%
    21:00 +25°C° 0 mm 1 m/S 754 mmHg 73%
    22:00 +25°C° 0 mm 1 m/S 754 mmHg 74%
    23:00 +25°C° 0 mm 1 m/S 754 mmHg 75%

    23 Oktober, Mittwoch

    Zeit Temperatur Niederschläge Wind Luftdruck Luftfeuchtigkeit
    00:00 +24°C° 0 mm 1 m/S 754 mmHg 76%
    01:00 +24°C° 0 mm 1 m/S 754 mmHg 77%
    02:00 +23°C° 0 mm 1 m/S 753 mmHg 77%
    03:00 +23°C° 0 mm 1 m/S 753 mmHg 78%
    04:00 +23°C° 0 mm 1 m/S 753 mmHg 79%
    05:00 +22°C° 0 mm 1 m/S 753 mmHg 79%
    06:00 +22°C° 0 mm 1 m/S 753 mmHg 79%
    07:00 +24°C° 0 mm 1 m/S 754 mmHg 74%
    08:00 +26°C° 0 mm 1 m/S 755 mmHg 69%
    09:00 +27°C° 0 mm 1 m/S 755 mmHg 63%
    10:00 +29°C° 0 mm 1 m/S 755 mmHg 59%
    11:00 +30°C° 0 mm 1 m/S 755 mmHg 55%
    12:00 +31°C° 0 mm 1 m/S 754 mmHg 50%
    13:00 +31°C° 0 mm 2 m/S 754 mmHg 49%
    14:00 +31°C° 0 mm 2 m/S 753 mmHg 48%
    15:00 +32°C° 0 mm 2 m/S 752 mmHg 47%
    16:00 +30°C° 0 mm 2 m/S 752 mmHg 51%
    17:00 +28°C° 0 mm 2 m/S 752 mmHg 56%
    18:00 +27°C° 0 mm 1 m/S 752 mmHg 60%
    19:00 +26°C° 0 mm 1 m/S 753 mmHg 61%
    20:00 +25°C° 0 mm 1 m/S 753 mmHg 62%
    21:00 +25°C° 0 mm 1 m/S 754 mmHg 62%
    22:00 +23°C° 0 mm 0 m/S 754 mmHg 63%
    23:00 +23°C° 0 mm 0 m/S 754 mmHg 63%
    Mehr zeigen